This is the latest recevied weather packets stored in our database for station/object ZL2IH. If no packets are shown the sender has not sent any weather packets the latest 10 day(s).
| Time | Temp. | Humidity | Pressure | Rain* | Wind** | Luminosity | Snow |
|---|---|---|---|---|---|---|---|
| 1777845017 | 11.11° C | 100% | 1035.9 hPa | 0 mm | - | - | - |
| 1777838417 | 8.33° C | 100% | 1035.3 hPa | 0 mm | - | - | - |
| 1777837817 | 8.33° C | 100% | 1035.3 hPa | 0 mm | - | - | - |
| 1777837217 | 8.33° C | 100% | 1035.1 hPa | 0 mm | - | - | - |
| 1777836017 | 8.33° C | 100% | 1034.9 hPa | 0 mm | - | - | - |
| 1777835417 | 8.33° C | 100% | 1034.8 hPa | 0 mm | - | - | - |
| 1777831217 | 7.78° C | 100% | 1034.6 hPa | 0 mm | - | - | - |
| 1777826439 | 7.78° C | 100% | 1034.8 hPa | 0 mm | - | - | - |
| 1777824018 | 7.22° C | 100% | 1035.1 hPa | 0 mm | - | - | - |
| 1777822218 | 7.22° C | 100% | 1035 hPa | 0 mm | - | - | - |
| 1777820418 | 7.78° C | 100% | 1035.3 hPa | 0 mm | - | - | - |
| 1777819218 | 7.78° C | 100% | 1035.4 hPa | 0 mm | - | - | - |
| 1777818618 | 7.78° C | 100% | 1035.4 hPa | 0 mm | - | - | - |
| 1777812058 | 6.67° C | 100% | 1035.1 hPa | 0 mm | - | - | - |
| 1777809058 | 7.22° C | 100% | 1035 hPa | 0 mm | - | - | - |
| 1777805418 | 7.22° C | 100% | 1035 hPa | 0 mm | - | - | - |
| 1777801818 | 7.78° C | 100% | 1034.5 hPa | 0 mm | - | - | - |
| 1777801218 | 7.78° C | 100% | 1034.5 hPa | 0 mm | - | - | - |
| 1777799418 | 7.78° C | 100% | 1034.1 hPa | 0 mm | - | - | - |
| 1777793417 | 8.89° C | 100% | 1033.9 hPa | 0 mm | - | - | - |
| 1777791018 | 9.44° C | 100% | 1033.6 hPa | 0 mm | - | - | - |
| 1777785617 | 11.67° C | 100% | 1033.5 hPa | 0 mm | - | - | - |
| 1777783817 | 12.78° C | 100% | 1033.7 hPa | 0 mm | - | - | - |
| 1777781417 | 13.89° C | 100% | 1033.8 hPa | 0 mm | - | - | - |
| 1777776617 | 16.11° C | 100% | 1034 hPa | 0 mm | - | - | - |
* Rain latest hour (hover to see other rain measurements)
** Current wind speed in m/s (hover to see current wind gust speed)